Time,TemperatureF,DewpointF,PressureIn,WindDirection,WindDirectionDegrees,WindSpeedMPH,WindSpeedGustMPH,Humidity,HourlyPrecipIn,Conditions,Clouds,dailyrainin,SolarRadiationWatts/m^2,SoftwareType,DateUTC
2013-02-20 00:02:00,10.0,6.0,-100.00,NNW,327,9.0,22.0,85,0.00,,,0.00,0.000000,,2013-02-20 05:02:00,
2013-02-20 00:12:00,10.0,6.0,-100.00,NNW,327,9.0,22.0,85,0.00,,,0.00,0.000000,,2013-02-20 05:12:00,
2013-02-20 00:43:00,10.0,6.0,-100.00,NNW,329,9.0,21.0,84,0.00,,,0.00,0.000000,,2013-02-20 05:43:00,
2013-02-20 00:52:00,10.0,6.0,-100.00,NNW,329,9.0,21.0,84,0.00,,,0.00,0.000000,,2013-02-20 05:52:00,
2013-02-20 01:02:00,10.0,6.0,-100.00,NNW,329,9.0,21.0,84,0.00,,,0.00,0.000000,,2013-02-20 06:02:00,
2013-02-20 01:11:00,10.0,6.0,-100.00,NNW,329,9.0,21.0,84,0.00,,,0.00,0.000000,,2013-02-20 06:11:00,
2013-02-20 01:42:00,9.0,5.0,-100.00,NNW,334,10.0,22.0,84,0.00,,,0.00,0.000000,,2013-02-20 06:42:00,
2013-02-20 01:52:00,9.0,5.0,-100.00,NNW,334,10.0,22.0,84,0.00,,,0.00,0.000000,,2013-02-20 06:52:00,
2013-02-20 02:02:00,9.0,5.0,-100.00,NNW,334,10.0,22.0,84,0.00,,,0.00,0.000000,,2013-02-20 07:02:00,
2013-02-20 02:11:00,9.0,5.0,-100.00,NNW,334,10.0,22.0,84,0.00,,,0.00,0.000000,,2013-02-20 07:11:00,
2013-02-20 02:42:00,8.0,4.0,-100.00,NNW,329,11.0,22.0,83,0.00,,,0.00,0.000000,,2013-02-20 07:42:00,
2013-02-20 02:52:00,8.0,4.0,-100.00,NNW,329,11.0,22.0,83,0.00,,,0.00,0.000000,,2013-02-20 07:52:00,
2013-02-20 03:05:00,8.0,4.0,-100.00,NNW,329,11.0,22.0,83,0.00,,,0.00,0.000000,,2013-02-20 08:05:00,
2013-02-20 03:11:00,8.0,4.0,-100.00,NNW,329,11.0,22.0,83,0.00,,,0.00,0.000000,,2013-02-20 08:11:00,
2013-02-20 03:42:00,9.0,5.0,-100.00,NNW,334,9.0,22.0,83,0.00,,,0.00,0.000000,,2013-02-20 08:42:00,
2013-02-20 03:52:00,9.0,5.0,-100.00,NNW,334,9.0,22.0,83,0.00,,,0.00,0.000000,,2013-02-20 08:52:00,
2013-02-20 04:02:00,9.0,5.0,-100.00,NNW,334,9.0,22.0,83,0.00,,,0.00,0.000000,,2013-02-20 09:02:00,
2013-02-20 04:11:00,9.0,5.0,-100.00,NNW,334,9.0,22.0,83,0.00,,,0.00,0.000000,,2013-02-20 09:11:00,
2013-02-20 04:42:00,8.0,4.0,-100.00,NNW,328,12.0,26.0,84,0.00,,,0.00,0.000000,,2013-02-20 09:42:00,
2013-02-20 04:52:00,8.0,4.0,-100.00,NNW,328,12.0,26.0,84,0.00,,,0.00,0.000000,,2013-02-20 09:52:00,
2013-02-20 05:01:00,8.0,4.0,-100.00,NNW,328,12.0,26.0,84,0.00,,,0.00,0.000000,,2013-02-20 10:01:00,
2013-02-20 05:12:00,8.0,4.0,-100.00,NNW,328,12.0,26.0,84,0.00,,,0.00,0.000000,,2013-02-20 10:12:00,
2013-02-20 05:42:00,7.0,3.0,-100.00,NNW,332,11.0,23.0,82,0.00,,,0.00,0.000000,,2013-02-20 10:42:00,
2013-02-20 05:52:00,7.0,3.0,-100.00,NNW,332,11.0,23.0,82,0.00,,,0.00,0.000000,,2013-02-20 10:52:00,
2013-02-20 06:02:00,7.0,3.0,-100.00,NNW,332,11.0,23.0,82,0.00,,,0.00,0.000000,,2013-02-20 11:02:00,
2013-02-20 06:11:00,7.0,3.0,-100.00,NNW,332,11.0,23.0,82,0.00,,,0.00,0.000000,,2013-02-20 11:11:00,
2013-02-20 06:42:00,6.0,2.0,-100.00,NW,326,12.0,23.0,82,0.00,,,0.00,0.000000,,2013-02-20 11:42:00,
2013-02-20 06:52:00,6.0,2.0,-100.00,NW,326,12.0,23.0,82,0.00,,,0.00,0.000000,,2013-02-20 11:52:00,
2013-02-20 07:02:00,6.0,2.0,-100.00,NW,326,12.0,23.0,82,0.00,,,0.00,0.000000,,2013-02-20 12:02:00,
2013-02-20 07:12:00,6.0,2.0,-100.00,NW,326,12.0,23.0,82,0.00,,,0.00,0.000000,,2013-02-20 12:12:00,
2013-02-20 07:42:00,5.0,0.0,-100.00,NNW,341,9.0,21.0,81,0.00,,,0.00,0.000000,,2013-02-20 12:42:00,
2013-02-20 07:53:00,5.0,0.0,-100.00,NNW,341,9.0,21.0,81,0.00,,,0.00,0.000000,,2013-02-20 12:53:00,
2013-02-20 08:01:00,5.0,0.0,-100.00,NNW,341,9.0,21.0,81,0.00,,,0.00,0.000000,,2013-02-20 13:01:00,
2013-02-20 08:12:00,5.0,0.0,-100.00,NNW,341,9.0,21.0,81,0.00,,,0.00,0.000000,,2013-02-20 13:12:00,
2013-02-20 08:42:00,5.0,0.0,-100.00,North,352,9.0,20.0,80,0.00,,,0.00,10.000000,,2013-02-20 13:42:00,
2013-02-20 08:52:00,5.0,0.0,-100.00,North,352,9.0,20.0,80,0.00,,,0.00,10.000000,,2013-02-20 13:52:00,
2013-02-20 09:01:00,5.0,0.0,-100.00,North,352,9.0,20.0,80,0.00,,,0.00,10.000000,,2013-02-20 14:01:00,
2013-02-20 09:11:00,5.0,0.0,-100.00,North,352,9.0,20.0,80,0.00,,,0.00,10.000000,,2013-02-20 14:11:00,
2013-02-20 09:42:00,6.0,1.0,-100.00,NNW,338,10.0,18.0,79,0.00,,,0.00,109.000000,,2013-02-20 14:42:00,
2013-02-20 09:52:00,6.0,1.0,-100.00,NNW,338,10.0,18.0,79,0.00,,,0.00,109.000000,,2013-02-20 14:52:00,
2013-02-20 10:02:00,6.0,1.0,-100.00,NNW,338,10.0,18.0,79,0.00,,,0.00,109.000000,,2013-02-20 15:02:00,
2013-02-20 10:12:00,6.0,1.0,-100.00,NNW,338,10.0,18.0,79,0.00,,,0.00,109.000000,,2013-02-20 15:12:00,
2013-02-20 10:42:00,7.0,2.0,-100.00,North,349,12.0,20.0,78,0.00,,,0.00,236.000000,,2013-02-20 15:42:00,
2013-02-20 10:52:00,7.0,2.0,-100.00,North,349,12.0,20.0,78,0.00,,,0.00,236.000000,,2013-02-20 15:52:00,
2013-02-20 11:01:00,7.0,2.0,-100.00,North,349,12.0,20.0,78,0.00,,,0.00,236.000000,,2013-02-20 16:01:00,
2013-02-20 11:12:00,7.0,2.0,-100.00,North,349,12.0,20.0,78,0.00,,,0.00,236.000000,,2013-02-20 16:12:00,
2013-02-20 11:42:00,9.0,3.0,-100.00,NW,326,10.0,19.0,76,0.00,,,0.00,460.000000,,2013-02-20 16:42:00,
2013-02-20 11:52:00,9.0,3.0,-100.00,NW,326,10.0,19.0,76,0.00,,,0.00,460.000000,,2013-02-20 16:52:00,
2013-02-20 12:01:00,9.0,3.0,-100.00,NW,326,10.0,19.0,76,0.00,,,0.00,460.000000,,2013-02-20 17:01:00,
2013-02-20 12:11:00,9.0,3.0,-100.00,NW,326,10.0,19.0,76,0.00,,,0.00,460.000000,,2013-02-20 17:11:00,
2013-02-20 12:42:00,11.0,5.0,-100.00,NW,325,12.0,21.0,76,0.00,,,0.00,609.000000,,2013-02-20 17:42:00,
2013-02-20 12:52:00,11.0,5.0,-100.00,NW,325,12.0,21.0,76,0.00,,,0.00,609.000000,,2013-02-20 17:52:00,
2013-02-20 13:02:00,11.0,5.0,-100.00,NW,325,12.0,21.0,76,0.00,,,0.00,609.000000,,2013-02-20 18:02:00,
2013-02-20 13:11:00,11.0,5.0,-100.00,NW,325,12.0,21.0,76,0.00,,,0.00,609.000000,,2013-02-20 18:11:00,
2013-02-20 13:42:00,12.0,6.0,-100.00,NW,326,9.0,22.0,77,0.00,,,0.00,581.000000,,2013-02-20 18:42:00,
2013-02-20 13:52:00,12.0,6.0,-100.00,NW,326,9.0,22.0,77,0.00,,,0.00,581.000000,,2013-02-20 18:52:00,
2013-02-20 14:01:00,12.0,6.0,-100.00,NW,326,9.0,22.0,77,0.00,,,0.00,581.000000,,2013-02-20 19:01:00,
2013-02-20 14:11:00,12.0,6.0,-100.00,NW,326,9.0,22.0,77,0.00,,,0.00,581.000000,,2013-02-20 19:11:00,
2013-02-20 14:32:00,10.0,5.0,-100.00,NW,316,15.0,25.0,78,0.00,,,0.00,595.000000,,2013-02-20 19:32:00,
2013-02-20 14:42:00,10.0,5.0,-100.00,NW,316,15.0,25.0,78,0.00,,,0.00,595.000000,,2013-02-20 19:42:00,
2013-02-20 14:52:00,10.0,5.0,-100.00,NW,316,15.0,25.0,78,0.00,,,0.00,595.000000,,2013-02-20 19:52:00,
2013-02-20 15:01:00,10.0,5.0,-100.00,NW,316,15.0,25.0,78,0.00,,,0.00,595.000000,,2013-02-20 20:01:00,
2013-02-20 15:11:00,10.0,5.0,-100.00,NW,316,15.0,25.0,78,0.00,,,0.00,595.000000,,2013-02-20 20:11:00,
2013-02-20 15:41:00,12.0,7.0,-100.00,NW,316,14.0,25.0,79,0.00,,,0.00,436.000000,,2013-02-20 20:41:00,
2013-02-20 15:52:00,12.0,7.0,-100.00,NW,316,14.0,25.0,79,0.00,,,0.00,436.000000,,2013-02-20 20:52:00,
2013-02-20 16:01:00,12.0,7.0,-100.00,NW,316,14.0,25.0,79,0.00,,,0.00,436.000000,,2013-02-20 21:01:00,
2013-02-20 16:11:00,12.0,7.0,-100.00,NW,316,14.0,25.0,79,0.00,,,0.00,436.000000,,2013-02-20 21:11:00,
2013-02-20 17:43:00,11.0,7.0,-100.00,NW,318,12.0,23.0,84,-99.99,,,0.00,160.000000,,2013-02-20 22:43:00,
2013-02-20 17:52:00,11.0,7.0,-100.00,NW,318,12.0,23.0,84,-99.99,,,0.00,160.000000,,2013-02-20 22:52:00,
2013-02-20 18:01:00,11.0,7.0,-100.00,NW,318,12.0,23.0,84,-99.99,,,0.00,160.000000,,2013-02-20 23:01:00,
2013-02-20 18:12:00,11.0,7.0,-100.00,NW,318,12.0,23.0,84,-99.99,,,0.00,160.000000,,2013-02-20 23:12:00,
2013-02-20 18:43:00,11.0,7.0,-100.00,NNW,327,10.0,18.0,84,0.00,,,0.00,32.000000,,2013-02-20 23:43:00,
2013-02-20 18:53:00,11.0,7.0,-100.00,NNW,327,10.0,18.0,84,0.00,,,0.00,32.000000,,2013-02-20 23:53:00,
2013-02-20 19:03:00,11.0,7.0,-100.00,NNW,327,10.0,18.0,84,0.00,,,0.00,32.000000,,2013-02-21 00:03:00,
2013-02-20 19:11:00,11.0,7.0,-100.00,NNW,327,10.0,18.0,84,0.00,,,0.00,32.000000,,2013-02-21 00:11:00,
2013-02-20 19:32:00,12.0,8.0,-100.00,NNW,331,9.0,20.0,85,0.00,,,0.00,0.000000,,2013-02-21 00:32:00,
2013-02-20 19:42:00,12.0,8.0,-100.00,NNW,331,9.0,20.0,85,0.00,,,0.00,0.000000,,2013-02-21 00:42:00,
2013-02-20 19:52:00,12.0,8.0,-100.00,NNW,331,9.0,20.0,85,0.00,,,0.00,0.000000,,2013-02-21 00:52:00,
2013-02-20 20:01:00,12.0,8.0,-100.00,NNW,331,9.0,20.0,85,0.00,,,0.00,0.000000,,2013-02-21 01:01:00,
2013-02-20 20:11:00,12.0,8.0,-100.00,NNW,331,9.0,20.0,85,0.00,,,0.00,0.000000,,2013-02-21 01:11:00,
2013-02-20 20:42:00,11.0,7.0,-100.00,NNW,341,9.0,18.0,83,0.00,,,0.00,0.000000,,2013-02-21 01:42:00,
2013-02-20 20:52:00,11.0,7.0,-100.00,NNW,341,9.0,18.0,83,0.00,,,0.00,0.000000,,2013-02-21 01:52:00,
2013-02-20 21:02:00,11.0,7.0,-100.00,NNW,341,9.0,18.0,83,0.00,,,0.00,0.000000,,2013-02-21 02:02:00,
2013-02-20 21:11:00,11.0,7.0,-100.00,NNW,341,9.0,18.0,83,0.00,,,0.00,0.000000,,2013-02-21 02:11:00,
2013-02-20 22:02:00,10.0,6.0,-100.00,North,358,9.0,20.0,83,0.00,,,0.00,0.000000,,2013-02-21 03:02:00,
2013-02-20 22:12:00,10.0,6.0,-100.00,North,358,9.0,20.0,83,0.00,,,0.00,0.000000,,2013-02-21 03:12:00,
2013-02-20 22:42:00,9.0,5.0,-100.00,North,2,12.0,21.0,83,0.00,,,0.00,0.000000,,2013-02-21 03:42:00,
2013-02-20 22:52:00,9.0,5.0,-100.00,North,2,12.0,21.0,83,0.00,,,0.00,0.000000,,2013-02-21 03:52:00,
2013-02-20 23:01:00,9.0,5.0,-100.00,North,2,12.0,21.0,83,0.00,,,0.00,0.000000,,2013-02-21 04:01:00,
2013-02-20 23:11:00,9.0,5.0,-100.00,North,2,12.0,21.0,83,0.00,,,0.00,0.000000,,2013-02-21 04:11:00,
2013-02-20 23:32:00,8.0,3.0,-100.00,North,351,12.0,24.0,81,0.00,,,0.00,0.000000,,2013-02-21 04:32:00,
2013-02-20 23:42:00,8.0,3.0,-100.00,North,351,12.0,24.0,81,0.00,,,0.00,0.000000,,2013-02-21 04:42:00,
2013-02-20 23:52:00,8.0,3.0,-100.00,North,351,12.0,24.0,81,0.00,,,0.00,0.000000,,2013-02-21 04:52:00,